Estherville, IA

1:20 PM CDT on August 26, 2016 (GMT -0500)
Estherville Municipal

Weather History for KEST - April, 2013

Change the Weather History Date:

Sunday, April 21, 2013

  Actual Average Record
Temperature  
Mean Temperature 48 °F 49 °F  
Max Temperature 59 °F 61 °F 86 °F (1980)
Min Temperature 36 °F 37 °F 24 °F (1966)
Degree Days  
Heating Degree Days 17 16  
Month to date heating degree days 590 422  
Since 1 July heating degree days 7428 7337  
Cooling Degree Days 0 0  
Month to date cooling degree days 0 0  
Year to date cooling degree days 0 0  
Moisture  
Dew Point 38 °F    
Average Humidity 77    
Maximum Humidity 92    
Minimum Humidity 61    
Precipitation  
Precipitation 0.03 in 0.13 in 0.89 in (1992)
Month to date precipitation 3.76 2.14  
Sea Level Pressure  
Sea Level Pressure 30.13 in    
Wind  
Wind Speed 15 mph (SSW)    
Max Wind Speed 35 mph    
Max Gust Speed 43 mph    
Visibility 10 miles    
Events Rain    
T = Trace of Precipitation, MM = Missing Value Source: NWS Daily Summary

Daily Weather History Graph

Daily Weather History Graph

Search for Another Location

Airport or City:

Trip Planner

Search our weather history database for the weather conditions in past years. The results will help you decide how hot, cold, wet, or windy it might be!

Date:

Astronomy

Apr. 21, 2013 Rise Set
Actual Time 6:26 AM CDT 8:09 PM CDT
Civil Twilight 5:56 AM CDT 8:39 PM CDT
Nautical Twilight 5:19 AM CDT 9:16 PM CDT
Astronomical Twilight 4:39 AM CDT 9:56 PM CDT
Moon 3:48 PM CDT (4/21) 3:56 AM CDT (4/21)
Length of Visible Light 14h 43m
Length of Day
13h 43m
Waxing Gibbous, 80% of the Moon is Illuminated
Apr 21
Waxing Gibbous
Apr 25
Full
May 2
Last Quarter
May 9
New
May 17
First Quarter

Hourly Weather History & Observations

Time (CDT) Temp. Windchill Dew Point Humidity Pressure Visibility Wind Dir Wind Speed Gust Speed Precip Events Conditions
12:52 AM 37.0 °F 29.8 °F 28.0 °F 70% 30.24 in 10.0 mi SE 10.4 mph - N/A   Overcast
1:52 AM 36.0 °F 28.0 °F 28.9 °F 76% 30.23 in 10.0 mi SE 11.5 mph - N/A   Overcast
2:52 AM 36.0 °F 28.5 °F 28.9 °F 76% 30.22 in 10.0 mi SE 10.4 mph - N/A   Overcast
3:52 AM 36.0 °F 27.5 °F 28.9 °F 76% 30.20 in 10.0 mi SE 12.7 mph - N/A   Mostly Cloudy
4:52 AM 37.0 °F 28.1 °F 30.0 °F 76% 30.19 in 10.0 mi SSE 15.0 mph - N/A   Overcast
5:52 AM 36.0 °F 26.0 °F 32.0 °F 86% 30.18 in 10.0 mi SE 17.3 mph - N/A   Overcast
6:52 AM 36.0 °F 27.1 °F 32.0 °F 86% 30.18 in 10.0 mi SE 13.8 mph - 0.00 in   Overcast
7:52 AM 37.9 °F 28.9 °F 32.0 °F 79% 30.18 in 10.0 mi SSE 16.1 mph 21.9 mph N/A   Overcast
9:52 AM 44.1 °F 35.2 °F 35.1 °F 71% 30.14 in 10.0 mi SSE 23.0 mph 29.9 mph N/A   Clear
10:52 AM 46.0 °F 37.8 °F 37.0 °F 71% 30.13 in 10.0 mi South 23.0 mph 28.8 mph N/A   Clear
11:52 AM 48.0 °F - 39.0 °F 71% 30.10 in 10.0 mi South 24.2 mph - N/A   Mostly Cloudy
12:52 PM 53.1 °F - 41.0 °F 64% 30.08 in 10.0 mi South 24.2 mph 31.1 mph N/A   Partly Cloudy
1:52 PM 55.0 °F - 42.1 °F 62% 30.05 in 10.0 mi South 24.2 mph 32.2 mph N/A   Mostly Cloudy
2:52 PM 57.9 °F - 44.1 °F 60% 30.03 in 10.0 mi South 18.4 mph 29.9 mph N/A   Mostly Cloudy
3:52 PM 57.9 °F - 42.1 °F 56% 30.02 in 10.0 mi SSW 19.6 mph 24.2 mph 0.00 in Rain Light Rain
4:52 PM 53.1 °F - 45.0 °F 74% 30.03 in 7.0 mi SW 12.7 mph 20.7 mph 0.02 in Rain Light Rain
5:52 PM 52.0 °F - 46.9 °F 83% 30.05 in 10.0 mi West 9.2 mph - 0.01 in   Overcast
6:52 PM 51.1 °F - 46.0 °F 83% 30.07 in 9.0 mi West 9.2 mph - 0.00 in Rain Light Rain
7:52 PM 48.9 °F - 46.0 °F 90% 30.09 in 9.0 mi NW 6.9 mph - 0.00 in   Overcast
8:23 PM 48.2 °F - 44.6 °F 87% 30.09 in 10.0 mi NNW 11.5 mph 20.7 mph N/A   Overcast
8:37 PM 46.4 °F 40.7 °F 42.8 °F 87% 30.10 in 10.0 mi NW 12.7 mph - N/A   Overcast
8:52 PM 46.0 °F 41.0 °F 42.1 °F 86% 30.13 in 10.0 mi NNW 10.4 mph - N/A   Overcast
9:52 PM 44.1 °F 40.1 °F 39.9 °F 85% 30.16 in 9.0 mi NNW 6.9 mph - N/A   Overcast
10:45 PM 39.2 °F 29.8 °F 37.4 °F 93% 30.15 in 8.0 mi NNW 18.4 mph - N/A   Overcast
10:52 PM 39.9 °F 32.1 °F 37.0 °F 89% 30.17 in 9.0 mi NNW 13.8 mph - N/A   Overcast
11:09 PM 39.2 °F 30.8 °F 35.6 °F 87% 30.15 in 10.0 mi NNW 15.0 mph - N/A   Overcast
11:52 PM 37.9 °F 29.6 °F 34.0 °F 86% 30.18 in 10.0 mi North 13.8 mph - N/A   Overcast